Hourly Data Report for October 27, 2016

All times are specified in Local Standard Time (LST). Add 1 hour to adjust for Daylight Saving Time where and when it is observed.

FREDERICTON
NEW BRUNSWICK

45°52'08.000" N
66°32'14.000" W
20.70 m
8101505
71700
YFC

Download Data

Hourly Data (October 2016)
Hourly Data Report for October 27, 2016
Temp Definition
°C
Dew Point Temp Definition
°C
Rel Hum Definition
%
Wind Dir Definition
10's deg

Wind Spd Definition
km/h
Visibility Definition
km
Stn Press Definition
kPa
Hmdx Definition


Wind Chill Definition


Weather Definition


TIME
00:00 Legend Double Dagger 2.5 0.7 88 35 13 16.1 102.70     LegendNANA
01:00 Legend Double Dagger 2.4 0.6 88 34 21 16.1 102.76     LegendNANA
02:00 Legend Double Dagger 2.3 0.7 89 35 15 16.1 102.80     LegendNANA
03:00 Legend Double Dagger 2.2 0.6 89 36 13 16.1 102.83     LegendNANA
04:00 Legend Double Dagger 2.1 0.6 90 35 17 16.1 102.83     LegendNANA
05:00 Legend Double Dagger 2.0 0.5 90 35 13 16.1 102.90     LegendNANA
06:00 Legend Double Dagger 2.0 0.4 89 36 11 16.1 102.95     LegendNANA
07:00 Legend Double Dagger 2.0 0.4 89 2 13 16.1 102.99     LegendNANA
08:00 Legend Double Dagger 2.1 0.3 88 1 5 16.1 103.07     LegendNANA
09:00 Legend Double Dagger 2.6 0.1 84 2 9 16.1 103.11     LegendNANA
10:00 Legend Double Dagger 4.5 0.1 73 2 9 16.1 103.15     LegendNANA
11:00 Legend Double Dagger 5.4 -0.2 67 5 17 16.1 103.15     LegendNANA
12:00 Legend Double Dagger 6.4 -1.5 57 6 8 16.1 103.11     LegendNANA
13:00 Legend Double Dagger 6.1 -1.1 60 35 13 16.1 103.06     LegendNANA
14:00 Legend Double Dagger 6.7 -2.4 52 2 5 16.1 103.02     LegendNANA
15:00 Legend Double Dagger 5.5 -1.9 59 35 8 16.1 102.99     LegendNANA
16:00 Legend Double Dagger 5.5 -1.5 61 1 17 16.1 102.98     LegendNANA
17:00 Legend Double Dagger 4.1 -2.6 62 4 11 16.1 102.98     LegendNANA
18:00 Legend Double Dagger 2.6 -2.5 69 3 9 16.1 103.03     LegendNANA
19:00 Legend Double Dagger 1.8 -2.2 75 3 13 16.1 103.05     LegendNANA
20:00 Legend Double Dagger 0.8 -2.6 78 6 11 16.1 103.08     LegendNANA
21:00 Legend Double Dagger 0.0 -3.0 80 4 8 16.1 103.08   -3 LegendNANA
22:00 Legend Double Dagger -0.2 -2.9 82 5 17 16.1 103.06   -5 LegendNANA
23:00 Legend Double Dagger -0.5 -2.7 85 6 11 16.1 103.06   -4 LegendNANA

Notes on Data Quality.

Legend

  • E = Estimated
  • M = Missing
  • NA = Not Available
  • ‡ = Partner data that is not subject to review by the National Climate Archives
Date modified: